Home   Weather   Río Gallegos   Past weeks

Flag for Argentina Past Weather in Río Gallegos, Santa Cruz, Argentina — Yesterday and Last 2 Weeks

Now
54 °F

Passing clouds.


Feels Like: 53 °F
Forecast: 51 / 66 °F
Wind: 3 mph from West

Location: Rio Gallegos Aerodrome

Current Time: Jan 19, 2017 at 6:06:51 am

Latest Report: Jan 19, 2017 at 5:00 am


Visibility: N/A

Pressure: 29.59 "Hg

Humidity: 72%

Dew Point: 45 °F

Location of Río GallegosLocation

Past Weather in Río Gallegos — Graph

°F

Río Gallegos Temperature Yesterday

Maximum temperature yesterday: 68 °F (at 6:00 pm)
Minimum temperature yesterday: 43 °F (at 3:00 am)
Average temperature yesterday: 54 °F

High & Low Weather Summary for the Past Weeks

 TemperatureHumidityPressure
High72 °F (Jan 15, 2:00 pm)94% (Jan 14, 4:00 am)29.71 "Hg (Jan 14, 4:00 am)
Low37 °F (Jan 4, 6:00 am)20% (Jan 16, 4:00 pm)29.00 "Hg (Jan 6, 4:00 am)
Average54 °F52%29.39 "Hg
* Reported Jan 4 5:00 am — Jan 19 5:00 am, Río Gallegos, Weather by CustomWeather, © 2017

Note: Actual official high and low records may vary slightly from our data, if they occured in-between our weather recording intervals... More about our weather records

Advertising

Río Gallegos Weather History for the Previous 24 Hours

Scroll right to see more
 ConditionsComfort  
Time TempWeatherWind HumidityBarometerVisibility
5:00 am
Thu, Jan 19
54 °FPassing clouds.3 mph72%29.59 "HgN/A
4:00 am54 °FPassing clouds.10 mph63%29.59 "HgN/A
3:00 am54 °FPassing clouds.9 mph63%29.59 "HgN/A
2:00 am50 °FPassing clouds.3 mph71%29.56 "HgN/A
1:00 am52 °FClear.9 mph62%29.53 "Hg10 mi
12:00 am54 °FPassing clouds.8 mph58%29.56 "HgN/A
11:00 pm
Wed, Jan 18
57 °FPassing clouds.20 mph44%29.53 "HgN/A
10:00 pm59 °FPassing clouds.21 mph39%29.53 "HgN/A
9:00 pm61 °FScattered clouds.26 mph36%29.47 "HgN/A
8:00 pm66 °FScattered clouds.32 mph30%29.45 "HgN/A
7:00 pm68 °FScattered clouds.28 mph26%29.42 "HgN/A
6:00 pm68 °FScattered clouds.29 mph28%29.39 "HgN/A
5:00 pm66 °FScattered clouds.22 mph32%29.39 "HgN/A
4:00 pm66 °FScattered clouds.23 mph30%29.39 "HgN/A
3:00 pm66 °FBroken clouds.21 mph26%29.39 "HgN/A
2:00 pm61 °FSunny.22 mph34%29.42 "Hg10 mi
1:00 pm59 °FSunny.21 mph39%29.47 "Hg10 mi
12:00 pm54 °FSunny.22 mph51%29.50 "Hg10 mi
11:00 am52 °FSunny.24 mph50%29.53 "Hg10 mi
10:00 am50 °FSunny.16 mph50%29.56 "Hg10 mi
9:00 am48 °FSunny.9 mph58%29.62 "Hg10 mi
8:00 am46 °FSunny.10 mph66%29.62 "Hg10 mi
7:00 am45 °FSunny.9 mph71%29.65 "Hg10 mi
6:00 am43 °FSunny.6 mph81%29.65 "Hg10 mi
Weather by CustomWeather, © 2017

See weather overviewHow to use our weather pages